Tracking 30918 objects as of 2-Jul-2025
HD Live streaming from Space Station
objects crossing your sky now

DMSP 5D-2 F13 DEB

Track DMSP 5D-2 F13 DEB now!
10-day predictions


NORAD ID: 40570
Int'l Code: 1995-015ED
Perigee: 624.0 km
Apogee: 636.5 km
Inclination: 98.7 °
Period: 97.2 minutes
Semi major axis: 7001 km
RCS: Unknown
Launch date: March 24, 1995
Source: United States (US)
Launch site: AIR FORCE WESTERN TEST RANGE (AFWTR)

Note: This is SATELLITE DEBRIS
Your satellite tracking list
Your tracking list is empty




NASA's NSSDC Master Catalog

Two Line Element Set (TLE):
1 40570U 95015ED  25182.63332911  .00027922  00000-0  35134-2 0  9992
2 40570  98.6600 246.9052 0008962  66.3989 293.8162 14.81973387534870
Source of the keplerian elements: AFSPC